TimeCST,TemperatureF,Dew PointF,Humidity,Sea Level PressureIn,VisibilityMPH,Wind Direction,Wind SpeedMPH,Gust SpeedMPH,PrecipitationIn,Events,Conditions,WindDirDegrees,DateUTC
12:03 AM,37.4,35.6,93,30.05,1.8,Calm,Calm,-,N/A,,Overcast,0,2013-01-01 06:03:00
12:53 AM,36.0,34.0,93,30.06,1.8,NNE,4.6,-,N/A,,Overcast,20,2013-01-01 06:53:00
1:27 AM,37.4,33.8,87,30.05,2.0,North,5.8,-,N/A,,Overcast,350,2013-01-01 07:27:00
1:53 AM,37.0,34.0,89,30.09,2.0,North,4.6,-,N/A,,Overcast,350,2013-01-01 07:53:00
2:02 AM,37.4,33.8,87,30.07,1.8,NNW,6.9,-,N/A,,Overcast,340,2013-01-01 08:02:00
2:53 AM,36.0,35.1,97,30.10,2.0,North,4.6,-,N/A,,Overcast,10,2013-01-01 08:53:00
3:43 AM,35.6,35.6,100,30.07,4.0,NNE,3.5,-,N/A,,Overcast,30,2013-01-01 09:43:00
3:53 AM,37.0,34.0,89,30.08,5.0,NNE,4.6,-,N/A,,Overcast,20,2013-01-01 09:53:00
4:46 AM,37.4,33.8,87,30.07,9.0,NNE,6.9,-,N/A,,Overcast,20,2013-01-01 10:46:00
4:53 AM,37.0,34.0,89,30.09,9.0,NNE,5.8,-,N/A,,Overcast,20,2013-01-01 10:53:00
5:08 AM,37.4,33.8,87,30.07,9.0,NNE,5.8,-,N/A,,Overcast,20,2013-01-01 11:08:00
5:30 AM,37.4,33.8,87,30.08,9.0,NE,5.8,-,N/A,,Overcast,40,2013-01-01 11:30:00
5:53 AM,37.0,33.1,86,30.09,10.0,NE,10.4,-,N/A,,Overcast,40,2013-01-01 11:53:00
6:53 AM,36.0,33.1,89,30.11,10.0,NNE,8.1,-,N/A,,Overcast,20,2013-01-01 12:53:00
7:53 AM,36.0,32.0,86,30.14,10.0,North,9.2,-,N/A,,Overcast,10,2013-01-01 13:53:00
8:53 AM,36.0,32.0,86,30.18,10.0,North,10.4,-,N/A,,Overcast,360,2013-01-01 14:53:00
9:42 AM,35.6,32.0,87,30.13,10.0,NNE,12.7,-,N/A,,Overcast,30,2013-01-01 15:42:00
9:53 AM,36.0,32.0,86,30.16,10.0,NNE,8.1,-,N/A,,Overcast,30,2013-01-01 15:53:00
10:53 AM,37.0,30.9,79,30.21,9.0,NNE,6.9,-,N/A,,Overcast,20,2013-01-01 16:53:00
11:26 AM,37.4,30.2,75,30.18,7.0,NNE,5.8,-,0.00,Snow,Light Snow,20,2013-01-01 17:26:00
11:48 AM,35.6,30.2,81,30.17,5.0,North,6.9,-,0.00,Snow,Light Snow,360,2013-01-01 17:48:00
11:53 AM,36.0,30.9,82,30.18,5.0,North,9.2,-,0.00,Snow,Light Snow,10,2013-01-01 17:53:00
12:10 PM,35.6,30.2,81,30.13,9.0,NNE,8.1,-,0.00,,Overcast,20,2013-01-01 18:10:00
12:51 PM,35.6,30.2,81,30.13,10.0,North,12.7,-,0.00,,Overcast,10,2013-01-01 18:51:00
12:53 PM,36.0,28.9,76,30.15,10.0,North,11.5,-,0.00,,Overcast,360,2013-01-01 18:53:00
1:08 PM,35.6,30.2,81,30.12,10.0,NNE,9.2,-,N/A,,Overcast,20,2013-01-01 19:08:00
1:22 PM,35.6,30.2,81,30.13,9.0,North,11.5,-,N/A,,Overcast,10,2013-01-01 19:22:00
1:53 PM,35.1,28.9,78,30.14,9.0,North,9.2,-,N/A,,Overcast,360,2013-01-01 19:53:00
2:24 PM,33.8,28.4,81,30.12,10.0,North,12.7,-,N/A,,Overcast,360,2013-01-01 20:24:00
2:36 PM,35.6,28.4,75,30.14,10.0,North,10.4,-,N/A,,Overcast,350,2013-01-01 20:36:00
2:53 PM,34.0,27.0,75,30.17,9.0,North,11.5,-,N/A,,Overcast,350,2013-01-01 20:53:00
3:17 PM,33.8,26.6,75,30.15,9.0,NNW,11.5,-,N/A,,Overcast,340,2013-01-01 21:17:00
3:53 PM,33.1,26.1,75,30.18,10.0,North,11.5,-,N/A,,Overcast,350,2013-01-01 21:53:00
4:53 PM,33.1,25.0,72,30.19,10.0,North,6.9,-,N/A,,Overcast,360,2013-01-01 22:53:00
5:53 PM,32.0,23.0,69,30.21,10.0,North,8.1,-,N/A,,Overcast,350,2013-01-01 23:53:00
6:53 PM,30.9,21.9,69,30.23,10.0,North,11.5,-,N/A,,Mostly Cloudy,360,2013-01-02 00:53:00
7:53 PM,30.0,21.9,72,30.25,10.0,North,8.1,-,N/A,,Clear,360,2013-01-02 01:53:00
8:53 PM,30.0,21.0,69,30.24,10.0,North,5.8,-,N/A,,Clear,10,2013-01-02 02:53:00
9:53 PM,28.9,19.9,69,30.26,10.0,North,8.1,-,N/A,,Clear,350,2013-01-02 03:53:00
10:53 PM,28.0,19.9,72,30.28,10.0,NNW,6.9,-,N/A,,Clear,340,2013-01-02 04:53:00
11:53 PM,27.0,19.0,72,30.26,10.0,North,4.6,-,N/A,,Clear,350,2013-01-02 05:53:00